{"data":{"norad_id":53716,"epoch":"2026-05-24T20:03:49.458240Z","epoch_age_seconds":82534,"freshness":"FRESH","line1":"1 53716U 22107S   26144.83598910 -.00000992  00000+0 -44261-4 0  9996","line2":"2 53716  53.2157 271.9611 0001186  76.9615 283.1509 15.08837509205904","mean_motion":15.08837509,"eccentricity":0.0001186,"inclination_deg":53.2157,"raan_deg":271.9611,"arg_perigee_deg":76.9615,"mean_anomaly_deg":283.1509,"bstar":-4.4261e-5,"rev_number":20590,"period_min":95.43771223943,"perigee_km":538.93054144789,"apogee_km":540.57146448219,"semimajor_km":6917.888002965,"source":"CELESTRAK","updated_at":"2026-05-25T13:38:17.534447Z"}}